owner,sensor,date,latitude,longitude,vertical_datum,wind_speed,wind_to_direction,wind_speed_of_gust,qcFlag 
NDBC,ioos:station:NOAA.NDBC:SAUF1:1,2012-11-01T00:00:00Z,29.8570,-81.2650,16.5,10.3,270.0,,'1111122,1111122,1111122' 
NDBC,ioos:station:NOAA.NDBC:SAUF1:1,2012-11-01T01:00:00Z,29.8570,-81.2650,16.5,9.3,280.0,,'1111122,1111122,1111122' 
NDBC,ioos:station:NOAA.NDBC:SAUF1:1,2012-11-01T02:00:00Z,29.8570,-81.2650,16.5,9.3,280.0,,'1111122,1111122,1111122' 
NDBC,ioos:station:NOAA.NDBC:SAUF1:1,2012-11-01T03:00:00Z,29.8570,-81.2650,16.5,9.8,280.0,,'1111122,1111122,1111122' 
NDBC,ioos:station:NOAA.NDBC:SAUF1:1,2012-11-01T04:00:00Z,29.8570,-81.2650,16.5,10.3,280.0,,'1111122,1111122,1111122' 
NDBC,ioos:station:NOAA.NDBC:SAUF1:1,2012-11-01T05:00:00Z,29.8570,-81.2650,16.5,10.3,290.0,,'1111122,1111122,1111122' 
NDBC,ioos:station:NOAA.NDBC:SAUF1:1,2012-11-01T06:00:00Z,29.8570,-81.2650,16.5,7.7,290.0,,'1111122,1111122,1111122' 
NDBC,ioos:station:NOAA.NDBC:SAUF1:1,2012-11-01T07:00:00Z,29.8570,-81.2650,16.5,6.7,280.0,,'1111122,1111122,1111122' 
NDBC,ioos:station:NOAA.NDBC:SAUF1:1,2012-11-01T08:00:00Z,29.8570,-81.2650,16.5,7.2,280.0,,'1111122,1111122,1111122' 
NDBC,ioos:station:NOAA.NDBC:SAUF1:1,2012-11-01T09:00:00Z,29.8570,-81.2650,16.5,7.7,270.0,,'1111122,1111122,1111122' 
NDBC,ioos:station:NOAA.NDBC:SAUF1:1,2012-11-01T10:00:00Z,29.8570,-81.2650,16.5,7.7,280.0,,'1111122,1111122,1111122' 
NDBC,ioos:station:NOAA.NDBC:SAUF1:1,2012-11-01T11:00:00Z,29.8570,-81.2650,16.5,7.2,280.0,,'1111122,1111122,1111122' 
NDBC,ioos:station:NOAA.NDBC:SAUF1:1,2012-11-01T12:00:00Z,29.8570,-81.2650,16.5,6.7,290.0,,'1111122,1111122,1111122' 
NDBC,ioos:station:NOAA.NDBC:SAUF1:1,2012-11-01T13:00:00Z,29.8570,-81.2650,16.5,6.7,360.0,,'1111122,1111122,1111122' 
NDBC,ioos:station:NOAA.NDBC:SAUF1:1,2012-11-01T14:00:00Z,29.8570,-81.2650,16.5,6.2,10.0,,'1111122,1111122,1111122' 
NDBC,ioos:station:NOAA.NDBC:SAUF1:1,2012-11-01T15:00:00Z,29.8570,-81.2650,16.5,5.7,20.0,,'1111122,1111122,1111122' 
NDBC,ioos:station:NOAA.NDBC:SAUF1:1,2012-11-01T16:00:00Z,29.8570,-81.2650,16.5,6.2,30.0,,'1111122,1111122,1111122' 
NDBC,ioos:station:NOAA.NDBC:SAUF1:1,2012-11-01T17:00:00Z,29.8570,-81.2650,16.5,6.7,20.0,,'1111122,1111122,1111122' 
NDBC,ioos:station:NOAA.NDBC:SAUF1:1,2012-11-01T18:00:00Z,29.8570,-81.2650,16.5,3.6,30.0,,'1111122,1111122,1111122' 
NDBC,ioos:station:NOAA.NDBC:SAUF1:1,2012-11-01T19:00:00Z,29.8570,-81.2650,16.5,1.0,10.0,,'1111122,1111122,1111122' 
NDBC,ioos:station:NOAA.NDBC:SAUF1:1,2012-11-01T20:00:00Z,29.8570,-81.2650,16.5,1.0,220.0,,'1111122,1111122,1111122' 
NDBC,ioos:station:NOAA.NDBC:SAUF1:1,2012-11-01T21:00:00Z,29.8570,-81.2650,16.5,3.6,240.0,,'1111122,1111122,1111122' 
NDBC,ioos:station:NOAA.NDBC:SAUF1:1,2012-11-01T22:00:00Z,29.8570,-81.2650,16.5,4.6,240.0,,'1111122,1111122,1111122' 
NDBC,ioos:station:NOAA.NDBC:SAUF1:1,2012-11-01T23:00:00Z,29.8570,-81.2650,16.5,5.1,240.0,,'1111122,1111122,1111122' 
NDBC,ioos:station:NOAA.NDBC:SAUF1:1,2012-11-02T00:00:00Z,29.8570,-81.2650,16.5,5.1,290.0,,'1111122,1111122,1111122' 
NDBC,ioos:station:NOAA.NDBC:SAUF1:1,2012-11-02T01:00:00Z,29.8570,-81.2650,16.5,5.7,300.0,,'1111122,1111122,1111122' 
NDBC,ioos:station:NOAA.NDBC:SAUF1:1,2012-11-02T09:00:00Z,29.8570,-81.2650,16.5,1.5,10.0,,'1111122,1111122,1111122' 
NDBC,ioos:station:NOAA.NDBC:SAUF1:1,2012-11-02T10:00:00Z,29.8570,-81.2650,16.5,1.5,40.0,,'1111122,1111122,1111122' 
NDBC,ioos:station:NOAA.NDBC:SAUF1:1,2012-11-02T15:00:00Z,29.8570,-81.2650,16.5,2.1,200.0,,'1111122,1111122,1111122' 
NDBC,ioos:station:NOAA.NDBC:SAUF1:1,2012-11-02T16:00:00Z,29.8570,-81.2650,16.5,2.1,210.0,,'1111122,1111122,1111122' 
NDBC,ioos:station:NOAA.NDBC:SAUF1:1,2012-11-02T17:00:00Z,29.8570,-81.2650,16.5,3.1,210.0,,'1111122,1111122,1111122' 
NDBC,ioos:station:NOAA.NDBC:SAUF1:1,2012-11-02T18:00:00Z,29.8570,-81.2650,16.5,3.1,230.0,,'1111122,1111122,1111122' 
NDBC,ioos:station:NOAA.NDBC:SAUF1:1,2012-11-02T19:00:00Z,29.8570,-81.2650,16.5,4.1,230.0,,'1111122,1111122,1111122' 
NDBC,ioos:station:NOAA.NDBC:SAUF1:1,2012-11-02T20:00:00Z,29.8570,-81.2650,16.5,4.6,230.0,,'1111122,1111122,1111122' 
NDBC,ioos:station:NOAA.NDBC:SAUF1:1,2012-11-02T21:00:00Z,29.8570,-81.2650,16.5,4.6,230.0,,'1111122,1111122,1111122' 
NDBC,ioos:station:NOAA.NDBC:SAUF1:1,2012-11-02T22:00:00Z,29.8570,-81.2650,16.5,4.1,240.0,,'1111122,1111122,1111122' 
NDBC,ioos:station:NOAA.NDBC:SAUF1:1,2012-11-02T23:00:00Z,29.8570,-81.2650,16.5,4.1,240.0,,'1111122,1111122,1111122' 
NDBC,ioos:station:NOAA.NDBC:SAUF1:1,2012-11-03T00:00:00Z,29.8570,-81.2650,16.5,4.1,240.0,,'1111122,1111122,1111122' 
NDBC,ioos:station:NOAA.NDBC:SAUF1:1,2012-11-03T01:00:00Z,29.8570,-81.2650,16.5,4.6,240.0,,'1111122,1111122,1111122' 
NDBC,ioos:station:NOAA.NDBC:SAUF1:1,2012-11-03T02:00:00Z,29.8570,-81.2650,16.5,4.6,270.0,,'1111122,1111122,1111122' 
NDBC,ioos:station:NOAA.NDBC:SAUF1:1,2012-11-03T03:00:00Z,29.8570,-81.2650,16.5,5.1,270.0,,'1111122,1111122,1111122' 
NDBC,ioos:station:NOAA.NDBC:SAUF1:1,2012-11-03T04:00:00Z,29.8570,-81.2650,16.5,5.1,280.0,,'1111122,1111122,1111122' 
NDBC,ioos:station:NOAA.NDBC:SAUF1:1,2012-11-03T05:00:00Z,29.8570,-81.2650,16.5,5.1,280.0,,'1111122,1111122,1111122' 
NDBC,ioos:station:NOAA.NDBC:SAUF1:1,2012-11-03T06:00:00Z,29.8570,-81.2650,16.5,6.2,290.0,,'1111122,1111122,1111122' 
NDBC,ioos:station:NOAA.NDBC:SAUF1:1,2012-11-03T07:00:00Z,29.8570,-81.2650,16.5,4.6,280.0,,'1111122,1111122,1111122' 
NDBC,ioos:station:NOAA.NDBC:SAUF1:1,2012-11-03T08:00:00Z,29.8570,-81.2650,16.5,5.1,270.0,,'1111122,1111122,1111122' 
NDBC,ioos:station:NOAA.NDBC:SAUF1:1,2012-11-03T09:00:00Z,29.8570,-81.2650,16.5,4.6,280.0,,'1111122,1111122,1111122' 
NDBC,ioos:station:NOAA.NDBC:SAUF1:1,2012-11-03T10:00:00Z,29.8570,-81.2650,16.5,4.6,280.0,,'1111122,1111122,1111122' 
NDBC,ioos:station:NOAA.NDBC:SAUF1:1,2012-11-03T11:00:00Z,29.8570,-81.2650,16.5,4.1,310.0,,'1111122,1111122,1111122' 
NDBC,ioos:station:NOAA.NDBC:SAUF1:1,2012-11-03T12:00:00Z,29.8570,-81.2650,16.5,4.1,330.0,,'1111122,1111122,1111122' 
NDBC,ioos:station:NOAA.NDBC:SAUF1:1,2012-11-03T13:00:00Z,29.8570,-81.2650,16.5,4.1,340.0,,'1111122,1111122,1111122' 
NDBC,ioos:station:NOAA.NDBC:SAUF1:1,2012-11-03T14:00:00Z,29.8570,-81.2650,16.5,3.1,340.0,,'1111122,1111122,1111122' 
NDBC,ioos:station:NOAA.NDBC:SAUF1:1,2012-11-03T15:00:00Z,29.8570,-81.2650,16.5,2.1,330.0,,'1111122,1111122,1111122' 
NDBC,ioos:station:NOAA.NDBC:SAUF1:1,2012-11-03T16:00:00Z,29.8570,-81.2650,16.5,1.0,300.0,,'1111122,1111122,1111122' 
NDBC,ioos:station:NOAA.NDBC:SAUF1:1,2012-11-03T17:00:00Z,29.8570,-81.2650,16.5,1.0,210.0,,'1111122,1111122,1111122' 
NDBC,ioos:station:NOAA.NDBC:SAUF1:1,2012-11-03T18:00:00Z,29.8570,-81.2650,16.5,1.5,220.0,,'1111122,1111122,1111122' 
NDBC,ioos:station:NOAA.NDBC:SAUF1:1,2012-11-03T19:00:00Z,29.8570,-81.2650,16.5,3.6,210.0,,'1111122,1111122,1111122' 
NDBC,ioos:station:NOAA.NDBC:SAUF1:1,2012-11-03T20:00:00Z,29.8570,-81.2650,16.5,4.1,240.0,,'1111122,1111122,1111122' 
NDBC,ioos:station:NOAA.NDBC:SAUF1:1,2012-11-03T21:00:00Z,29.8570,-81.2650,16.5,3.6,260.0,,'1111122,1111122,1111122' 
NDBC,ioos:station:NOAA.NDBC:SAUF1:1,2012-11-03T22:00:00Z,29.8570,-81.2650,16.5,4.1,260.0,,'1111122,1111122,1111122' 
NDBC,ioos:station:NOAA.NDBC:SAUF1:1,2012-11-03T23:00:00Z,29.8570,-81.2650,16.5,3.6,250.0,,'1111122,1111122,1111122' 
NDBC,ioos:station:NOAA.NDBC:SAUF1:1,2012-11-04T00:00:00Z,29.8570,-81.2650,16.5,3.6,240.0,,'1111122,1111122,1111122' 
NDBC,ioos:station:NOAA.NDBC:SAUF1:1,2012-11-04T01:00:00Z,29.8570,-81.2650,16.5,3.1,240.0,,'1111122,1111122,1111122' 
NDBC,ioos:station:NOAA.NDBC:SAUF1:1,2012-11-04T02:00:00Z,29.8570,-81.2650,16.5,3.1,250.0,,'1111122,1111122,1111122' 
NDBC,ioos:station:NOAA.NDBC:SAUF1:1,2012-11-04T03:00:00Z,29.8570,-81.2650,16.5,3.6,240.0,,'1111122,1111122,1111122' 
NDBC,ioos:station:NOAA.NDBC:SAUF1:1,2012-11-04T04:00:00Z,29.8570,-81.2650,16.5,3.6,260.0,,'1111122,1111122,1111122' 
NDBC,ioos:station:NOAA.NDBC:SAUF1:1,2012-11-04T05:00:00Z,29.8570,-81.2650,16.5,3.1,270.0,,'1111122,1111122,1111122' 
NDBC,ioos:station:NOAA.NDBC:SAUF1:1,2012-11-04T06:00:00Z,29.8570,-81.2650,16.5,2.6,260.0,,'1111122,1111122,1111122' 
NDBC,ioos:station:NOAA.NDBC:SAUF1:1,2012-11-04T07:00:00Z,29.8570,-81.2650,16.5,2.1,260.0,,'1111122,1111122,1111122' 
NDBC,ioos:station:NOAA.NDBC:SAUF1:1,2012-11-04T08:00:00Z,29.8570,-81.2650,16.5,3.6,290.0,,'1111122,1111122,1111122' 
NDBC,ioos:station:NOAA.NDBC:SAUF1:1,2012-11-04T09:00:00Z,29.8570,-81.2650,16.5,3.1,280.0,,'1111122,1111122,1111122' 
NDBC,ioos:station:NOAA.NDBC:SAUF1:1,2012-11-04T10:00:00Z,29.8570,-81.2650,16.5,3.6,300.0,,'1111122,1111122,1111122' 
NDBC,ioos:station:NOAA.NDBC:SAUF1:1,2012-11-04T11:00:00Z,29.8570,-81.2650,16.5,2.6,290.0,,'1111122,1111122,1111122' 
NDBC,ioos:station:NOAA.NDBC:SAUF1:1,2012-11-04T12:00:00Z,29.8570,-81.2650,16.5,2.1,290.0,,'1111122,1111122,1111122' 
NDBC,ioos:station:NOAA.NDBC:SAUF1:1,2012-11-04T13:00:00Z,29.8570,-81.2650,16.5,1.5,280.0,,'1111122,1111122,1111122' 
NDBC,ioos:station:NOAA.NDBC:SAUF1:1,2012-11-04T14:00:00Z,29.8570,-81.2650,16.5,2.1,260.0,,'1111122,1111122,1111122' 
NDBC,ioos:station:NOAA.NDBC:SAUF1:1,2012-11-04T15:00:00Z,29.8570,-81.2650,16.5,2.6,260.0,,'1111122,1111122,1111122' 
NDBC,ioos:station:NOAA.NDBC:SAUF1:1,2012-11-04T16:00:00Z,29.8570,-81.2650,16.5,2.1,260.0,,'1111122,1111122,1111122' 
NDBC,ioos:station:NOAA.NDBC:SAUF1:1,2012-11-04T17:00:00Z,29.8570,-81.2650,16.5,2.1,270.0,,'1111122,1111122,1111122' 
NDBC,ioos:station:NOAA.NDBC:SAUF1:1,2012-11-04T18:00:00Z,29.8570,-81.2650,16.5,2.1,260.0,,'1111122,1111122,1111122' 
NDBC,ioos:station:NOAA.NDBC:SAUF1:1,2012-11-04T19:00:00Z,29.8570,-81.2650,16.5,3.1,260.0,,'1111122,1111122,1111122' 
NDBC,ioos:station:NOAA.NDBC:SAUF1:1,2012-11-04T20:00:00Z,29.8570,-81.2650,16.5,4.1,270.0,,'1111122,1111122,1111122' 
NDBC,ioos:station:NOAA.NDBC:SAUF1:1,2012-11-04T21:00:00Z,29.8570,-81.2650,16.5,4.1,270.0,,'1111122,1111122,1111122' 
NDBC,ioos:station:NOAA.NDBC:SAUF1:1,2012-11-04T22:00:00Z,29.8570,-81.2650,16.5,5.7,260.0,,'1111122,1111122,1111122' 
NDBC,ioos:station:NOAA.NDBC:SAUF1:1,2012-11-04T23:00:00Z,29.8570,-81.2650,16.5,5.1,250.0,,'1111122,1111122,1111122' 
NDBC,ioos:station:NOAA.NDBC:SAUF1:1,2012-11-05T00:00:00Z,29.8570,-81.2650,16.5,5.7,240.0,,'1111122,1111122,1111122' 
NDBC,ioos:station:NOAA.NDBC:SAUF1:1,2012-11-05T01:00:00Z,29.8570,-81.2650,16.5,6.7,250.0,,'1111122,1111122,1111122' 
NDBC,ioos:station:NOAA.NDBC:SAUF1:1,2012-11-05T02:00:00Z,29.8570,-81.2650,16.5,6.7,260.0,,'1111122,1111122,1111122' 
NDBC,ioos:station:NOAA.NDBC:SAUF1:1,2012-11-05T03:00:00Z,29.8570,-81.2650,16.5,6.7,270.0,,'1111122,1111122,1111122' 
NDBC,ioos:station:NOAA.NDBC:SAUF1:1,2012-11-05T04:00:00Z,29.8570,-81.2650,16.5,6.7,300.0,,'1111122,1111122,1111122' 
NDBC,ioos:station:NOAA.NDBC:SAUF1:1,2012-11-05T05:00:00Z,29.8570,-81.2650,16.5,5.1,290.0,,'1111122,1111122,1111122' 
NDBC,ioos:station:NOAA.NDBC:SAUF1:1,2012-11-05T06:00:00Z,29.8570,-81.2650,16.5,5.7,320.0,,'1111122,1111122,1111122' 
NDBC,ioos:station:NOAA.NDBC:SAUF1:1,2012-11-05T07:00:00Z,29.8570,-81.2650,16.5,8.2,340.0,,'1111122,1111122,1111122' 
NDBC,ioos:station:NOAA.NDBC:SAUF1:1,2012-11-05T08:00:00Z,29.8570,-81.2650,16.5,6.7,350.0,,'1111122,1111122,1111122' 
NDBC,ioos:station:NOAA.NDBC:SAUF1:1,2012-11-05T09:00:00Z,29.8570,-81.2650,16.5,6.7,350.0,,'1111122,1111122,1111122' 
NDBC,ioos:station:NOAA.NDBC:SAUF1:1,2012-11-05T10:00:00Z,29.8570,-81.2650,16.5,7.2,360.0,,'1111122,1111122,1111122' 
NDBC,ioos:station:NOAA.NDBC:SAUF1:1,2012-11-05T11:00:00Z,29.8570,-81.2650,16.5,7.2,10.0,,'1111122,1111122,1111122' 
NDBC,ioos:station:NOAA.NDBC:SAUF1:1,2012-11-05T12:00:00Z,29.8570,-81.2650,16.5,6.7,20.0,,'1111122,1111122,1111122' 
NDBC,ioos:station:NOAA.NDBC:SAUF1:1,2012-11-05T13:00:00Z,29.8570,-81.2650,16.5,7.7,20.0,,'1111122,1111122,1111122' 
NDBC,ioos:station:NOAA.NDBC:SAUF1:1,2012-11-05T14:00:00Z,29.8570,-81.2650,16.5,6.2,30.0,,'1111122,1111122,1111122' 
NDBC,ioos:station:NOAA.NDBC:SAUF1:1,2012-11-05T15:00:00Z,29.8570,-81.2650,16.5,6.2,40.0,,'1111122,1111122,1111122' 
NDBC,ioos:station:NOAA.NDBC:SAUF1:1,2012-11-05T16:00:00Z,29.8570,-81.2650,16.5,4.6,40.0,,'1111122,1111122,1111122' 
NDBC,ioos:station:NOAA.NDBC:SAUF1:1,2012-11-05T17:00:00Z,29.8570,-81.2650,16.5,5.1,50.0,,'1111122,1111122,1111122' 
NDBC,ioos:station:NOAA.NDBC:SAUF1:1,2012-11-05T18:00:00Z,29.8570,-81.2650,16.5,3.6,60.0,,'1111122,1111122,1111122' 
NDBC,ioos:station:NOAA.NDBC:SAUF1:1,2012-11-05T19:00:00Z,29.8570,-81.2650,16.5,3.1,60.0,,'1111122,1111122,1111122' 
NDBC,ioos:station:NOAA.NDBC:SAUF1:1,2012-11-05T20:00:00Z,29.8570,-81.2650,16.5,3.1,100.0,,'1111122,1111122,1111122' 
NDBC,ioos:station:NOAA.NDBC:SAUF1:1,2012-11-05T21:00:00Z,29.8570,-81.2650,16.5,3.1,110.0,,'1111122,1111122,1111122' 
NDBC,ioos:station:NOAA.NDBC:SAUF1:1,2012-11-05T22:00:00Z,29.8570,-81.2650,16.5,3.1,140.0,,'1111122,1111122,1111122' 
NDBC,ioos:station:NOAA.NDBC:SAUF1:1,2012-11-05T23:00:00Z,29.8570,-81.2650,16.5,1.5,100.0,,'1111122,1111122,1111122' 
NDBC,ioos:station:NOAA.NDBC:SAUF1:1,2012-11-06T01:00:00Z,29.8570,-81.2650,16.5,1.5,160.0,,'1111122,1111122,1111122' 
NDBC,ioos:station:NOAA.NDBC:SAUF1:1,2012-11-06T02:00:00Z,29.8570,-81.2650,16.5,1.5,160.0,,'1111122,1111122,1111122' 
NDBC,ioos:station:NOAA.NDBC:SAUF1:1,2012-11-06T03:00:00Z,29.8570,-81.2650,16.5,2.1,180.0,,'1111122,1111122,1111122' 
NDBC,ioos:station:NOAA.NDBC:SAUF1:1,2012-11-06T04:00:00Z,29.8570,-81.2650,16.5,2.6,190.0,,'1111122,1111122,1111122' 
NDBC,ioos:station:NOAA.NDBC:SAUF1:1,2012-11-06T05:00:00Z,29.8570,-81.2650,16.5,3.1,200.0,,'1111122,1111122,1111122' 
NDBC,ioos:station:NOAA.NDBC:SAUF1:1,2012-11-06T06:00:00Z,29.8570,-81.2650,16.5,1.5,140.0,,'1111122,1111122,1111122' 
NDBC,ioos:station:NOAA.NDBC:SAUF1:1,2012-11-06T07:00:00Z,29.8570,-81.2650,16.5,1.5,140.0,,'1111122,1111122,1111122' 
NDBC,ioos:station:NOAA.NDBC:SAUF1:1,2012-11-06T08:00:00Z,29.8570,-81.2650,16.5,4.1,50.0,,'1111122,1111122,1111122' 
NDBC,ioos:station:NOAA.NDBC:SAUF1:1,2012-11-06T09:00:00Z,29.8570,-81.2650,16.5,5.1,210.0,,'1111122,1111122,1111122' 
NDBC,ioos:station:NOAA.NDBC:SAUF1:1,2012-11-06T10:00:00Z,29.8570,-81.2650,16.5,6.2,170.0,,'1111122,1111122,1111122' 
NDBC,ioos:station:NOAA.NDBC:SAUF1:1,2012-11-06T11:00:00Z,29.8570,-81.2650,16.5,12.3,30.0,,'1111122,1111122,1111122' 
NDBC,ioos:station:NOAA.NDBC:SAUF1:1,2012-11-06T12:00:00Z,29.8570,-81.2650,16.5,7.7,50.0,,'1111122,1111122,1111122' 
NDBC,ioos:station:NOAA.NDBC:SAUF1:1,2012-11-06T13:00:00Z,29.8570,-81.2650,16.5,7.2,60.0,,'1111122,1111122,1111122' 
NDBC,ioos:station:NOAA.NDBC:SAUF1:1,2012-11-06T14:00:00Z,29.8570,-81.2650,16.5,3.1,60.0,,'1111122,1111122,1111122' 
NDBC,ioos:station:NOAA.NDBC:SAUF1:1,2012-11-06T16:00:00Z,29.8570,-81.2650,16.5,4.1,330.0,,'1111122,1111122,1111122' 
NDBC,ioos:station:NOAA.NDBC:SAUF1:1,2012-11-06T17:00:00Z,29.8570,-81.2650,16.5,4.1,320.0,,'1111122,1111122,1111122' 
NDBC,ioos:station:NOAA.NDBC:SAUF1:1,2012-11-06T18:00:00Z,29.8570,-81.2650,16.5,3.1,330.0,,'1111122,1111122,1111122' 
NDBC,ioos:station:NOAA.NDBC:SAUF1:1,2012-11-06T19:00:00Z,29.8570,-81.2650,16.5,3.6,300.0,,'1111122,1111122,1111122' 
NDBC,ioos:station:NOAA.NDBC:SAUF1:1,2012-11-06T20:00:00Z,29.8570,-81.2650,16.5,7.2,290.0,,'1111122,1111122,1111122' 
NDBC,ioos:station:NOAA.NDBC:SAUF1:1,2012-11-06T21:00:00Z,29.8570,-81.2650,16.5,8.2,290.0,,'1111122,1111122,1111122' 
NDBC,ioos:station:NOAA.NDBC:SAUF1:1,2012-11-06T22:00:00Z,29.8570,-81.2650,16.5,10.8,300.0,,'1111122,1111122,1111122' 
NDBC,ioos:station:NOAA.NDBC:SAUF1:1,2012-11-06T23:00:00Z,29.8570,-81.2650,16.5,10.3,310.0,,'1111122,1111122,1111122' 
NDBC,ioos:station:NOAA.NDBC:SAUF1:1,2012-11-07T00:00:00Z,29.8570,-81.2650,16.5,12.3,350.0,,'1111122,1111122,1111122' 
NDBC,ioos:station:NOAA.NDBC:SAUF1:1,2012-11-07T01:00:00Z,29.8570,-81.2650,16.5,10.3,360.0,,'1111122,1111122,1111122' 
NDBC,ioos:station:NOAA.NDBC:SAUF1:1,2012-11-07T02:00:00Z,29.8570,-81.2650,16.5,8.2,350.0,,'1111122,1111122,1111122' 
NDBC,ioos:station:NOAA.NDBC:SAUF1:1,2012-11-07T03:00:00Z,29.8570,-81.2650,16.5,8.7,350.0,,'1111122,1111122,1111122' 
NDBC,ioos:station:NOAA.NDBC:SAUF1:1,2012-11-07T04:00:00Z,29.8570,-81.2650,16.5,10.3,360.0,,'1111122,1111122,1111122' 
NDBC,ioos:station:NOAA.NDBC:SAUF1:1,2012-11-07T05:00:00Z,29.8570,-81.2650,16.5,10.8,350.0,,'1111122,1111122,1111122' 
NDBC,ioos:station:NOAA.NDBC:SAUF1:1,2012-11-07T06:00:00Z,29.8570,-81.2650,16.5,9.8,350.0,,'1111122,1111122,1111122' 
NDBC,ioos:station:NOAA.NDBC:SAUF1:1,2012-11-07T07:00:00Z,29.8570,-81.2650,16.5,11.8,330.0,,'1111122,1111122,1111122' 
NDBC,ioos:station:NOAA.NDBC:SAUF1:1,2012-11-07T08:00:00Z,29.8570,-81.2650,16.5,10.8,340.0,,'1111122,1111122,1111122' 
NDBC,ioos:station:NOAA.NDBC:SAUF1:1,2012-11-07T09:00:00Z,29.8570,-81.2650,16.5,10.8,340.0,,'1111122,1111122,1111122' 
NDBC,ioos:station:NOAA.NDBC:SAUF1:1,2012-11-07T10:00:00Z,29.8570,-81.2650,16.5,11.3,340.0,,'1111122,1111122,1111122' 
NDBC,ioos:station:NOAA.NDBC:SAUF1:1,2012-11-07T11:00:00Z,29.8570,-81.2650,16.5,10.8,330.0,,'1111122,1111122,1111122' 
NDBC,ioos:station:NOAA.NDBC:SAUF1:1,2012-11-07T12:00:00Z,29.8570,-81.2650,16.5,11.8,340.0,,'1111122,1111122,1111122' 
NDBC,ioos:station:NOAA.NDBC:SAUF1:1,2012-11-07T13:00:00Z,29.8570,-81.2650,16.5,10.3,340.0,,'1111122,1111122,1111122' 
NDBC,ioos:station:NOAA.NDBC:SAUF1:1,2012-11-07T14:00:00Z,29.8570,-81.2650,16.5,10.3,350.0,,'1111122,1111122,1111122' 
NDBC,ioos:station:NOAA.NDBC:SAUF1:1,2012-11-07T15:00:00Z,29.8570,-81.2650,16.5,7.7,330.0,,'1111122,1111122,1111122' 
NDBC,ioos:station:NOAA.NDBC:SAUF1:1,2012-11-07T16:00:00Z,29.8570,-81.2650,16.5,7.2,310.0,,'1111122,1111122,1111122' 
NDBC,ioos:station:NOAA.NDBC:SAUF1:1,2012-11-07T17:00:00Z,29.8570,-81.2650,16.5,9.8,310.0,,'1111122,1111122,1111122' 
NDBC,ioos:station:NOAA.NDBC:SAUF1:1,2012-11-07T18:00:00Z,29.8570,-81.2650,16.5,9.8,310.0,,'1111122,1111122,1111122' 
NDBC,ioos:station:NOAA.NDBC:SAUF1:1,2012-11-07T19:00:00Z,29.8570,-81.2650,16.5,10.3,300.0,,'1111122,1111122,1111122' 
NDBC,ioos:station:NOAA.NDBC:SAUF1:1,2012-11-07T20:00:00Z,29.8570,-81.2650,16.5,11.3,300.0,,'1111122,1111122,1111122' 
NDBC,ioos:station:NOAA.NDBC:SAUF1:1,2012-11-07T21:00:00Z,29.8570,-81.2650,16.5,10.8,310.0,,'1111122,1111122,1111122' 
NDBC,ioos:station:NOAA.NDBC:SAUF1:1,2012-11-07T22:00:00Z,29.8570,-81.2650,16.5,10.8,300.0,,'1111122,1111122,1111122' 
NDBC,ioos:station:NOAA.NDBC:SAUF1:1,2012-11-07T23:00:00Z,29.8570,-81.2650,16.5,9.8,320.0,,'1111122,1111122,1111122' 
NDBC,ioos:station:NOAA.NDBC:SAUF1:1,2012-11-08T01:00:00Z,29.8570,-81.2650,16.5,8.7,350.0,,'1111122,1111122,1111122' 
NDBC,ioos:station:NOAA.NDBC:SAUF1:1,2012-11-08T02:00:00Z,29.8570,-81.2650,16.5,8.2,350.0,,'1111122,1111122,1111122' 
NDBC,ioos:station:NOAA.NDBC:SAUF1:1,2012-11-08T03:00:00Z,29.8570,-81.2650,16.5,7.2,350.0,,'1111122,1111122,1111122' 
NDBC,ioos:station:NOAA.NDBC:SAUF1:1,2012-11-08T04:00:00Z,29.8570,-81.2650,16.5,6.7,340.0,,'1111122,1111122,1111122' 
NDBC,ioos:station:NOAA.NDBC:SAUF1:1,2012-11-08T05:00:00Z,29.8570,-81.2650,16.5,7.7,360.0,,'1111122,1111122,1111122' 
NDBC,ioos:station:NOAA.NDBC:SAUF1:1,2012-11-08T06:00:00Z,29.8570,-81.2650,16.5,9.3,10.0,,'1111122,1111122,1111122' 
NDBC,ioos:station:NOAA.NDBC:SAUF1:1,2012-11-08T07:00:00Z,29.8570,-81.2650,16.5,10.3,10.0,,'1111122,1111122,1111122' 
NDBC,ioos:station:NOAA.NDBC:SAUF1:1,2012-11-08T08:00:00Z,29.8570,-81.2650,16.5,9.8,360.0,,'1111122,1111122,1111122' 
NDBC,ioos:station:NOAA.NDBC:SAUF1:1,2012-11-08T09:00:00Z,29.8570,-81.2650,16.5,9.3,10.0,,'1111122,1111122,1111122' 
NDBC,ioos:station:NOAA.NDBC:SAUF1:1,2012-11-08T10:00:00Z,29.8570,-81.2650,16.5,8.7,10.0,,'1111122,1111122,1111122' 
NDBC,ioos:station:NOAA.NDBC:SAUF1:1,2012-11-08T11:00:00Z,29.8570,-81.2650,16.5,8.2,10.0,,'1111122,1111122,1111122' 
NDBC,ioos:station:NOAA.NDBC:SAUF1:1,2012-11-08T12:00:00Z,29.8570,-81.2650,16.5,7.7,10.0,,'1111122,1111122,1111122' 
NDBC,ioos:station:NOAA.NDBC:SAUF1:1,2012-11-08T13:00:00Z,29.8570,-81.2650,16.5,8.2,10.0,,'1111122,1111122,1111122' 
NDBC,ioos:station:NOAA.NDBC:SAUF1:1,2012-11-08T14:00:00Z,29.8570,-81.2650,16.5,7.7,20.0,,'1111122,1111122,1111122' 
NDBC,ioos:station:NOAA.NDBC:SAUF1:1,2012-11-08T15:00:00Z,29.8570,-81.2650,16.5,6.2,20.0,,'1111122,1111122,1111122' 
NDBC,ioos:station:NOAA.NDBC:SAUF1:1,2012-11-08T16:00:00Z,29.8570,-81.2650,16.5,5.1,30.0,,'1111122,1111122,1111122' 
NDBC,ioos:station:NOAA.NDBC:SAUF1:1,2012-11-08T17:00:00Z,29.8570,-81.2650,16.5,4.1,20.0,,'1111122,1111122,1111122' 
NDBC,ioos:station:NOAA.NDBC:SAUF1:1,2012-11-08T18:00:00Z,29.8570,-81.2650,16.5,2.6,10.0,,'1111122,1111122,1111122' 
NDBC,ioos:station:NOAA.NDBC:SAUF1:1,2012-11-08T19:00:00Z,29.8570,-81.2650,16.5,1.5,360.0,,'1111122,1111122,1111122' 
NDBC,ioos:station:NOAA.NDBC:SAUF1:1,2012-11-08T20:00:00Z,29.8570,-81.2650,16.5,1.5,240.0,,'1111122,1111122,1111122' 
NDBC,ioos:station:NOAA.NDBC:SAUF1:1,2012-11-08T21:00:00Z,29.8570,-81.2650,16.5,1.0,260.0,,'1111122,1111122,1111122' 
NDBC,ioos:station:NOAA.NDBC:SAUF1:1,2012-11-08T22:00:00Z,29.8570,-81.2650,16.5,1.5,290.0,,'1111122,1111122,1111122' 
NDBC,ioos:station:NOAA.NDBC:SAUF1:1,2012-11-08T23:00:00Z,29.8570,-81.2650,16.5,2.6,260.0,,'1111122,1111122,1111122' 
NDBC,ioos:station:NOAA.NDBC:SAUF1:1,2012-11-09T00:00:00Z,29.8570,-81.2650,16.5,3.1,280.0,,'1111122,1111122,1111122' 
NDBC,ioos:station:NOAA.NDBC:SAUF1:1,2012-11-09T01:00:00Z,29.8570,-81.2650,16.5,2.6,300.0,,'1111122,1111122,1111122' 
NDBC,ioos:station:NOAA.NDBC:SAUF1:1,2012-11-09T02:00:00Z,29.8570,-81.2650,16.5,3.1,330.0,,'1111122,1111122,1111122' 
NDBC,ioos:station:NOAA.NDBC:SAUF1:1,2012-11-09T03:00:00Z,29.8570,-81.2650,16.5,2.6,10.0,,'1111122,1111122,1111122' 
NDBC,ioos:station:NOAA.NDBC:SAUF1:1,2012-11-09T04:00:00Z,29.8570,-81.2650,16.5,4.1,30.0,,'1111122,1111122,1111122' 
NDBC,ioos:station:NOAA.NDBC:SAUF1:1,2012-11-09T05:00:00Z,29.8570,-81.2650,16.5,3.6,20.0,,'1111122,1111122,1111122' 
NDBC,ioos:station:NOAA.NDBC:SAUF1:1,2012-11-09T06:00:00Z,29.8570,-81.2650,16.5,2.1,50.0,,'1111122,1111122,1111122' 
NDBC,ioos:station:NOAA.NDBC:SAUF1:1,2012-11-09T07:00:00Z,29.8570,-81.2650,16.5,3.6,50.0,,'1111122,1111122,1111122' 
NDBC,ioos:station:NOAA.NDBC:SAUF1:1,2012-11-09T08:00:00Z,29.8570,-81.2650,16.5,3.6,50.0,,'1111122,1111122,1111122' 
NDBC,ioos:station:NOAA.NDBC:SAUF1:1,2012-11-09T09:00:00Z,29.8570,-81.2650,16.5,5.7,20.0,,'1111122,1111122,1111122' 
NDBC,ioos:station:NOAA.NDBC:SAUF1:1,2012-11-09T10:00:00Z,29.8570,-81.2650,16.5,4.1,30.0,,'1111122,1111122,1111122' 
NDBC,ioos:station:NOAA.NDBC:SAUF1:1,2012-11-09T11:00:00Z,29.8570,-81.2650,16.5,3.1,40.0,,'1111122,1111122,1111122' 
NDBC,ioos:station:NOAA.NDBC:SAUF1:1,2012-11-09T12:00:00Z,29.8570,-81.2650,16.5,3.6,70.0,,'1111122,1111122,1111122' 
NDBC,ioos:station:NOAA.NDBC:SAUF1:1,2012-11-09T13:00:00Z,29.8570,-81.2650,16.5,3.6,50.0,,'1111122,1111122,1111122' 
NDBC,ioos:station:NOAA.NDBC:SAUF1:1,2012-11-09T14:00:00Z,29.8570,-81.2650,16.5,3.1,70.0,,'1111122,1111122,1111122' 
NDBC,ioos:station:NOAA.NDBC:SAUF1:1,2012-11-09T15:00:00Z,29.8570,-81.2650,16.5,3.1,60.0,,'1111122,1111122,1111122' 
NDBC,ioos:station:NOAA.NDBC:SAUF1:1,2012-11-09T16:00:00Z,29.8570,-81.2650,16.5,2.6,80.0,,'1111122,1111122,1111122' 
NDBC,ioos:station:NOAA.NDBC:SAUF1:1,2012-11-09T17:00:00Z,29.8570,-81.2650,16.5,3.6,80.0,,'1111122,1111122,1111122' 
NDBC,ioos:station:NOAA.NDBC:SAUF1:1,2012-11-09T18:00:00Z,29.8570,-81.2650,16.5,3.1,80.0,,'1111122,1111122,1111122' 
NDBC,ioos:station:NOAA.NDBC:SAUF1:1,2012-11-09T19:00:00Z,29.8570,-81.2650,16.5,3.1,80.0,,'1111122,1111122,1111122' 
NDBC,ioos:station:NOAA.NDBC:SAUF1:1,2012-11-09T20:00:00Z,29.8570,-81.2650,16.5,3.1,60.0,,'1111122,1111122,1111122' 
NDBC,ioos:station:NOAA.NDBC:SAUF1:1,2012-11-09T21:00:00Z,29.8570,-81.2650,16.5,3.6,70.0,,'1111122,1111122,1111122' 
NDBC,ioos:station:NOAA.NDBC:SAUF1:1,2012-11-09T22:00:00Z,29.8570,-81.2650,16.5,3.6,110.0,,'1111122,1111122,1111122' 
NDBC,ioos:station:NOAA.NDBC:SAUF1:1,2012-11-09T23:00:00Z,29.8570,-81.2650,16.5,4.1,120.0,,'1111122,1111122,1111122' 
NDBC,ioos:station:NOAA.NDBC:SAUF1:1,2012-11-10T00:00:00Z,29.8570,-81.2650,16.5,4.1,140.0,,'1111122,1111122,1111122' 
NDBC,ioos:station:NOAA.NDBC:SAUF1:1,2012-11-10T01:00:00Z,29.8570,-81.2650,16.5,2.6,120.0,,'1111122,1111122,1111122' 